KOA342 YBCS-YBHM

Flight info

Callsign KOA342
Flight time 0h 49m
Altitude 33000
Route DCT CS Y177 AKROM Z17 OVRON DCT
Aircraft A20N/M-SDE2E3FGHIJ1RWXY/LB1

Departure

Time 2026-04-20 13:41
Airport Cairns International Airport (YBCS)

Arrival

Time 2026-04-20 14:31
Airport Hamilton Island Airport (YBHM)
Time Latitude Longitude Altitude Speed Heading
2026-04-20 13:33 -16.87723 145.75268 13 ft 0 kts 66°
2026-04-20 13:36 -16.87729 145.75255 11 ft 10 kts 66°
2026-04-20 13:36 -16.87763 145.75193 14 ft 10 kts 26°
2026-04-20 13:36 -16.87797 145.75190 12 ft 0 kts 329°
2026-04-20 13:38 -16.87784 145.75182 13 ft 7 kts 329°
2026-04-20 13:38 -16.87684 145.75145 12 ft 25 kts 338°
2026-04-20 13:38 -16.87477 145.75063 11 ft 38 kts 336°
2026-04-20 13:38 -16.87311 145.74939 -7 ft 27 kts 290°
2026-04-20 13:39 -16.87137 145.74804 -7 ft 38 kts 338°
2026-04-20 13:39 -16.87055 145.74691 -12 ft 17 kts 246°
2026-04-20 13:39 -16.87031 145.74552 -12 ft 24 kts 337°
2026-04-20 13:39 -16.86864 145.74484 -11 ft 31 kts 337°
2026-04-20 13:40 -16.86659 145.74406 -4 ft 19 kts 17°
2026-04-20 13:40 -16.86579 145.74396 -3 ft 3 kts 294°
2026-04-20 13:40 -16.86607 145.74345 -3 ft 12 kts 197°
2026-04-20 13:40 -16.86660 145.74387 -4 ft 15 kts 143°
2026-04-20 13:41 -16.86905 145.74497 -11 ft 75 kts 158°
2026-04-20 13:41 -16.87577 145.74803 17 ft 132 kts 156°
2026-04-20 13:41 -16.88539 145.75226 316 ft 154 kts 157°
2026-04-20 13:41 -16.89501 145.75649 1169 ft 152 kts 158°
2026-04-20 13:42 -16.90499 145.76105 1904 ft 158 kts 154°
2026-04-20 13:42 -16.92600 145.77403 2988 ft 193 kts 143°
2026-04-20 13:42 -16.93744 145.78224 3576 ft 209 kts 145°
2026-04-20 13:43 -16.95015 145.79086 4164 ft 224 kts 146°
2026-04-20 13:43 -16.96339 145.79989 4982 ft 229 kts 146°
2026-04-20 13:43 -16.97677 145.80916 5820 ft 233 kts 145°
2026-04-20 13:43 -16.99032 145.81870 6650 ft 237 kts 144°
2026-04-20 13:44 -17.00398 145.82842 7469 ft 240 kts 145°
2026-04-20 13:44 -17.01819 145.83859 7947 ft 260 kts 146°
2026-04-20 13:44 -17.03371 145.84966 8416 ft 277 kts 146°
2026-04-20 13:44 -17.04976 145.86119 9287 ft 280 kts 147°
2026-04-20 13:45 -17.06606 145.87290 10053 ft 290 kts 149°
2026-04-20 13:45 -17.08333 145.88520 10362 ft 311 kts 148°
2026-04-20 13:45 -17.10181 145.89837 10587 ft 335 kts 147°
2026-04-20 13:45 -17.12143 145.91244 11087 ft 346 kts 148°
2026-04-20 13:46 -17.13469 145.92192 11502 ft 352 kts 148°
2026-04-20 13:46 -17.16204 145.94148 12448 ft 359 kts 148°
2026-04-20 13:46 -17.17581 145.95133 12918 ft 364 kts 148°
2026-04-20 13:46 -17.19682 145.96636 13685 ft 367 kts 148°
2026-04-20 13:47 -17.21788 145.98144 14448 ft 369 kts 148°
2026-04-20 13:47 -17.23923 145.99672 15030 ft 375 kts 148°
2026-04-20 13:47 -17.26093 146.01225 15631 ft 380 kts 148°
2026-04-20 13:47 -17.28286 146.02794 16236 ft 385 kts 148°
2026-04-20 13:48 -17.30506 146.04383 16819 ft 389 kts 148°
2026-04-20 13:48 -17.32754 146.05993 17409 ft 394 kts 149°
2026-04-20 13:48 -17.35026 146.07621 17970 ft 398 kts 149°
2026-04-20 13:48 -17.37329 146.09271 18501 ft 403 kts 149°
2026-04-20 13:49 -17.39653 146.10937 18988 ft 407 kts 149°
2026-04-20 13:49 -17.41997 146.12618 19509 ft 410 kts 149°
2026-04-20 13:49 -17.44362 146.14314 20010 ft 413 kts 149°
2026-04-20 13:49 -17.46745 146.16023 20495 ft 417 kts 149°
2026-04-20 13:50 -17.49150 146.17748 20991 ft 420 kts 149°
2026-04-20 13:50 -17.51568 146.19484 21468 ft 424 kts 149°
2026-04-20 13:50 -17.54019 146.21246 21901 ft 429 kts 150°
2026-04-20 13:50 -17.56490 146.23023 22356 ft 433 kts 150°
2026-04-20 13:51 -17.58977 146.24809 22851 ft 435 kts 150°
2026-04-20 13:51 -17.61481 146.26609 23280 ft 438 kts 150°
2026-04-20 13:51 -17.64005 146.28423 23711 ft 441 kts 150°
2026-04-20 13:51 -17.66511 146.30226 24090 ft 443 kts 150°
2026-04-20 13:52 -17.69060 146.32061 24477 ft 445 kts 150°
2026-04-20 13:52 -17.71649 146.33925 24814 ft 448 kts 150°
2026-04-20 13:52 -17.74226 146.35781 25199 ft 450 kts 150°
2026-04-20 13:52 -17.76807 146.37642 25547 ft 452 kts 151°
2026-04-20 13:53 -17.79406 146.39516 25902 ft 453 kts 151°
2026-04-20 13:53 -17.81973 146.41367 26237 ft 455 kts 151°
2026-04-20 13:53 -17.84591 146.43256 26572 ft 457 kts 151°
2026-04-20 13:53 -17.87214 146.45149 26917 ft 459 kts 152°
2026-04-20 13:54 -17.89855 146.47056 27188 ft 462 kts 152°
2026-04-20 13:54 -17.92508 146.48973 27509 ft 463 kts 152°
2026-04-20 13:54 -17.95170 146.50896 27809 ft 465 kts 152°
2026-04-20 13:54 -17.97840 146.52826 28090 ft 467 kts 152°
2026-04-20 13:55 -18.00520 146.54764 28378 ft 469 kts 152°
2026-04-20 13:55 -18.03215 146.56713 28648 ft 471 kts 152°
2026-04-20 13:55 -18.05918 146.58669 28914 ft 473 kts 153°
2026-04-20 13:55 -18.08634 146.60634 29169 ft 474 kts 153°
2026-04-20 13:56 -18.11355 146.62605 29419 ft 476 kts 153°
2026-04-20 13:56 -18.14085 146.64582 29663 ft 478 kts 153°
2026-04-20 13:56 -18.16827 146.66569 29905 ft 479 kts 153°
2026-04-20 13:56 -18.19575 146.68561 30140 ft 481 kts 153°
2026-04-20 13:57 -18.22337 146.70563 30344 ft 483 kts 153°
2026-04-20 13:57 -18.25108 146.72573 30526 ft 485 kts 153°
2026-04-20 13:57 -18.27892 146.74594 30719 ft 487 kts 153°
2026-04-20 13:57 -18.30686 146.76622 30916 ft 489 kts 153°
2026-04-20 13:58 -18.33488 146.78663 31116 ft 492 kts 151°
2026-04-20 13:58 -18.36178 146.80937 31400 ft 500 kts 144°
2026-04-20 13:58 -18.38667 146.83517 31694 ft 504 kts 141°
2026-04-20 13:58 -18.41129 146.86143 31948 ft 505 kts 141°
2026-04-20 13:59 -18.43611 146.88775 32237 ft 506 kts 141°
2026-04-20 13:59 -18.46055 146.91366 32545 ft 505 kts 141°
2026-04-20 13:59 -18.48568 146.94029 32849 ft 505 kts 141°
2026-04-20 13:59 -18.51044 146.96656 33070 ft 505 kts 141°
2026-04-20 14:00 -18.55943 147.01864 33113 ft 502 kts 142°
2026-04-20 14:00 -18.60859 147.07093 33108 ft 502 kts 142°
2026-04-20 14:01 -18.65779 147.12330 33110 ft 503 kts 142°
2026-04-20 14:01 -18.70700 147.17574 33105 ft 503 kts 142°
2026-04-20 14:02 -18.75620 147.22821 33105 ft 503 kts 142°
2026-04-20 14:02 -18.80540 147.28074 33104 ft 503 kts 142°
2026-04-20 14:03 -18.85454 147.33324 33107 ft 503 kts 142°
2026-04-20 14:03 -18.90372 147.38583 33119 ft 503 kts 142°
2026-04-20 14:04 -18.95316 147.43872 33107 ft 508 kts 142°
2026-04-20 14:04 -19.00274 147.49187 33110 ft 507 kts 142°
2026-04-20 14:05 -19.05222 147.54494 33111 ft 507 kts 142°
2026-04-20 14:05 -19.10173 147.59809 33111 ft 507 kts 142°
2026-04-20 14:06 -19.15122 147.65125 33113 ft 507 kts 142°
2026-04-20 14:06 -19.20074 147.70449 33114 ft 511 kts 142°
2026-04-20 14:07 -19.25043 147.75799 33111 ft 509 kts 142°
2026-04-20 14:07 -19.30013 147.81153 33114 ft 512 kts 142°
2026-04-20 14:08 -19.34999 147.86529 33109 ft 511 kts 142°
2026-04-20 14:08 -19.39981 147.91908 33113 ft 511 kts 142°
2026-04-20 14:09 -19.44971 147.97298 33104 ft 512 kts 142°
2026-04-20 14:09 -19.47467 147.99996 32976 ft 514 kts 142°
2026-04-20 14:09 -19.49970 148.02703 32733 ft 514 kts 142°
2026-04-20 14:10 -19.52467 148.05405 32488 ft 514 kts 142°
2026-04-20 14:10 -19.54972 148.08117 32097 ft 515 kts 142°
2026-04-20 14:10 -19.57480 148.10831 31451 ft 517 kts 141°
2026-04-20 14:10 -19.59970 148.13531 30605 ft 521 kts 140°
2026-04-20 14:11 -19.62471 148.16423 29503 ft 529 kts 137°
2026-04-20 14:11 -19.64897 148.19347 28502 ft 524 kts 137°
2026-04-20 14:11 -19.67287 148.22235 27607 ft 522 kts 137°
2026-04-20 14:11 -19.69681 148.25112 27227 ft 515 kts 137°
2026-04-20 14:12 -19.72033 148.27935 26764 ft 507 kts 137°
2026-04-20 14:12 -19.74360 148.30722 26145 ft 502 kts 137°
2026-04-20 14:12 -19.76685 148.33501 25228 ft 504 kts 137°
2026-04-20 14:12 -19.79018 148.36288 24246 ft 507 kts 137°
2026-04-20 14:13 -19.81335 148.39055 23145 ft 510 kts 136°
2026-04-20 14:13 -19.83683 148.41867 22168 ft 505 kts 136°
2026-04-20 14:13 -19.85991 148.44637 20957 ft 497 kts 136°
2026-04-20 14:13 -19.88274 148.47377 19668 ft 493 kts 136°
2026-04-20 14:14 -19.90520 148.50075 18567 ft 484 kts 136°
2026-04-20 14:14 -19.92732 148.52734 17469 ft 473 kts 136°
2026-04-20 14:14 -19.94881 148.55318 16462 ft 460 kts 136°
2026-04-20 14:14 -19.96968 148.57826 15479 ft 447 kts 135°
2026-04-20 14:15 -19.98997 148.60264 14520 ft 435 kts 135°
2026-04-20 14:15 -20.00978 148.62645 13540 ft 423 kts 135°
2026-04-20 14:15 -20.02906 148.64961 12386 ft 415 kts 134°
2026-04-20 14:15 -20.04798 148.67232 11315 ft 405 kts 134°
2026-04-20 14:16 -20.06647 148.69452 10269 ft 396 kts 133°
2026-04-20 14:16 -20.08453 148.71623 9270 ft 386 kts 132°
2026-04-20 14:16 -20.10170 148.73694 8904 ft 360 kts 132°
2026-04-20 14:16 -20.11773 148.75621 8652 ft 335 kts 134°
2026-04-20 14:17 -20.13416 148.77249 8455 ft 312 kts 141°
2026-04-20 14:17 -20.15095 148.78589 8269 ft 291 kts 143°
2026-04-20 14:17 -20.16662 148.79839 8102 ft 272 kts 143°
2026-04-20 14:17 -20.18181 148.81059 8029 ft 287 kts 142°
2026-04-20 14:18 -20.19859 148.82407 8012 ft 316 kts 143°
2026-04-20 14:18 -20.21701 148.83884 7826 ft 346 kts 143°
2026-04-20 14:18 -20.23713 148.85493 7467 ft 374 kts 142°
2026-04-20 14:18 -20.25795 148.87143 7607 ft 379 kts 143°
2026-04-20 14:19 -20.27969 148.88834 7210 ft 394 kts 143°
2026-04-20 14:19 -20.30189 148.90550 7405 ft 387 kts 143°
2026-04-20 14:19 -20.32348 148.92209 7918 ft 379 kts 143°
2026-04-20 14:19 -20.34448 148.93840 8172 ft 379 kts 143°
2026-04-20 14:20 -20.36569 148.95509 8477 ft 376 kts 143°
2026-04-20 14:20 -20.38619 148.97125 9037 ft 349 kts 149°
2026-04-20 14:20 -20.40743 148.97937 9605 ft 306 kts 172°
2026-04-20 14:20 -20.42723 148.97751 10141 ft 270 kts 198°
2026-04-20 14:21 -20.44177 148.96741 10636 ft 235 kts 228°
2026-04-20 14:21 -20.44883 148.95222 10824 ft 231 kts 257°
2026-04-20 14:21 -20.44767 148.93532 10617 ft 232 kts 287°
2026-04-20 14:21 -20.43835 148.92136 10225 ft 233 kts 321°
2026-04-20 14:22 -20.42485 148.91211 9827 ft 230 kts 328°
2026-04-20 14:22 -20.41122 148.90312 9361 ft 230 kts 328°
2026-04-20 14:22 -20.39787 148.89380 8909 ft 229 kts 324°
2026-04-20 14:22 -20.38494 148.88381 8458 ft 230 kts 324°
2026-04-20 14:23 -20.37212 148.87378 8042 ft 228 kts 324°
2026-04-20 14:23 -20.35939 148.86369 7592 ft 228 kts 324°
2026-04-20 14:23 -20.34666 148.85349 7165 ft 229 kts 324°
2026-04-20 14:23 -20.33392 148.84324 6712 ft 231 kts 324°
2026-04-20 14:24 -20.32110 148.83276 6225 ft 233 kts 324°
2026-04-20 14:24 -20.30835 148.82228 5740 ft 230 kts 324°
2026-04-20 14:24 -20.29578 148.81182 5277 ft 228 kts 324°
2026-04-20 14:24 -20.28342 148.80145 4810 ft 225 kts 324°
2026-04-20 14:25 -20.27125 148.79115 4343 ft 222 kts 326°
2026-04-20 14:25 -20.25746 148.78511 3895 ft 211 kts 355°
2026-04-20 14:25 -20.24329 148.78569 3453 ft 200 kts 25°
2026-04-20 14:25 -20.23282 148.79429 2952 ft 189 kts 61°
2026-04-20 14:26 -20.22956 148.80740 2478 ft 183 kts 91°
2026-04-20 14:26 -20.23034 148.82026 2311 ft 169 kts 98°
2026-04-20 14:26 -20.23172 148.83194 2286 ft 150 kts 100°
2026-04-20 14:26 -20.23388 148.84221 2299 ft 134 kts 110°
2026-04-20 14:27 -20.23767 148.85087 2304 ft 133 kts 121°
2026-04-20 14:27 -20.24349 148.85886 2296 ft 137 kts 131°
2026-04-20 14:27 -20.25047 148.86578 2284 ft 138 kts 138°
2026-04-20 14:27 -20.25799 148.87209 2278 ft 137 kts 140°
2026-04-20 14:28 -20.26561 148.87810 2282 ft 136 kts 140°
2026-04-20 14:28 -20.27323 148.88400 2163 ft 136 kts 140°
2026-04-20 14:28 -20.28092 148.88981 1843 ft 135 kts 142°
2026-04-20 14:28 -20.28887 148.89542 1436 ft 134 kts 144°
2026-04-20 14:29 -20.29664 148.90125 1276 ft 139 kts 141°
2026-04-20 14:29 -20.30412 148.90739 1075 ft 134 kts 139°
2026-04-20 14:29 -20.31155 148.91359 721 ft 140 kts 137°
2026-04-20 14:29 -20.31918 148.91988 460 ft 137 kts 136°
2026-04-20 14:30 -20.32695 148.92579 315 ft 135 kts 139°
2026-04-20 14:30 -20.33424 148.93215 463 ft 139 kts 133°
2026-04-20 14:30 -20.34163 148.93880 379 ft 143 kts 138°
2026-04-20 14:30 -20.34948 148.94510 84 ft 136 kts 137°
2026-04-20 14:31 -20.35656 148.95080 29 ft 117 kts 137°
2026-04-20 14:31 -20.36205 148.95545 20 ft 76 kts 144°
2026-04-20 14:31 -20.36377 148.95661 24 ft 0 kts 156°
2026-04-20 14:31 -20.36409 148.95659 24 ft 4 kts 223°
2026-04-20 14:32 -20.36392 148.95639 24 ft 15 kts 331°
2026-04-20 14:32 -20.36254 148.95566 22 ft 24 kts 325°
2026-04-20 14:32 -20.36027 148.95389 18 ft 58 kts 323°
2026-04-20 14:32 -20.35655 148.95094 27 ft 64 kts 323°
2026-04-20 14:33 -20.35438 148.94931 22 ft 13 kts 349°
2026-04-20 14:33 -20.35355 148.94999 17 ft 17 kts 20°
2026-04-20 14:33 -20.35280 148.94991 17 ft 8 kts 30°
2026-04-20 14:33 -20.35263 148.95002 18 ft 0 kts 33°